Weather History for Moses Lake, WA

Change the Weather History Date:

Wednesday, November 14, 2012

  Actual Average Record
Temperature  
Mean Temperature 37 °F 38 °F  
Max Temperature 38 °F 47 °F 63 °F (2001)
Min Temperature 35 °F 30 °F 9 °F (2014)
Degree Days  
Heating Degree Days 28 27  
Month to date heating degree days 322 341  
Since 1 July heating degree days 847 978  
Cooling Degree Days 0 0  
Month to date cooling degree days 0 0  
Year to date cooling degree days 719 615  
Moisture  
Dew Point 31 °F    
Average Humidity 83    
Maximum Humidity 89    
Minimum Humidity 76    
Precipitation  
Precipitation 0.00 in 0.04 in 0.29 in (1981)
Month to date precipitation 0.62 0.54  
Year to date precipitation 7.22 7.01  
Sea Level Pressure  
Sea Level Pressure 30.32 in    
Wind  
Wind Speed 4 mph (North)    
Max Wind Speed 10 mph    
Max Gust Speed 13 mph    
Visibility 9 miles    
Events      
T = Trace of Precipitation, MM = Missing Value Source: NWS Daily Summary

Daily Weather History Graph

Daily Weather History Graph

Search for Another Location

Airport:

Trip Planner

Search our weather history database for the weather conditions in past years. The results will help you decide how hot, cold, wet, or windy it might be!

Date:

Astronomy

Nov. 14, 2012 Rise Set
Actual Time 7:00 AM PST 4:22 PM PST
Civil Twilight 6:27 AM PST 4:55 PM PST
Nautical Twilight 5:50 AM PST 5:32 PM PST
Astronomical Twilight 5:14 AM PST 6:08 PM PST
Moon 7:59 AM PST (11/14) 5:11 PM PST (11/14)
Length of Visible Light 10h 28m
Length of Day
9h 21m
New Moon, 1% of the Moon is Illuminated
Nov 14
New Moon
Nov 20
First Quarter
Nov 28
Full
Dec 6
Last Quarter
Dec 13
New

Hourly Weather History & Observations

Time (PST) Temp. Windchill Dew Point Humidity Pressure Visibility Wind Dir Wind Speed Gust Speed Precip Events Conditions
12:52 AM 35.1 °F - 32.0 °F 89% 30.24 in 10.0 mi Calm Calm - N/A   Overcast
1:52 AM 35.1 °F 31.0 °F 30.9 °F 85% 30.25 in 10.0 mi WSW 4.6 mph - N/A   Overcast
2:52 AM 36.0 °F 33.3 °F 30.9 °F 82% 30.24 in 10.0 mi West 3.5 mph - N/A   Overcast
3:52 AM 35.1 °F - 30.9 °F 85% 30.23 in 10.0 mi Calm Calm - N/A   Overcast
4:52 AM 36.0 °F - 30.9 °F 82% 30.24 in 10.0 mi Calm Calm - N/A   Overcast
5:52 AM 36.0 °F 33.3 °F 30.9 °F 82% 30.25 in 10.0 mi WSW 3.5 mph - N/A   Overcast
6:52 AM 35.1 °F - 30.9 °F 85% 30.26 in 8.0 mi Calm Calm - N/A   Overcast
7:52 AM 35.1 °F - 30.9 °F 85% 30.28 in 6.0 mi Calm Calm - N/A   Overcast
8:52 AM 35.1 °F 30.1 °F 30.9 °F 85% 30.30 in 5.0 mi NNW 5.8 mph - N/A   Overcast
9:52 AM 35.1 °F 31.0 °F 30.9 °F 85% 30.32 in 6.0 mi NW 4.6 mph - N/A   Overcast
10:52 AM 35.1 °F 29.3 °F 30.9 °F 85% 30.34 in 6.0 mi NNW 6.9 mph - N/A   Overcast
11:21 AM 35.6 °F 31.7 °F 32.0 °F 87% 30.30 in 6.0 mi North 4.6 mph - N/A   Overcast
11:52 AM 35.1 °F 31.0 °F 32.0 °F 89% 30.34 in 7.0 mi NNW 4.6 mph - N/A   Overcast
12:52 PM 36.0 °F 32.1 °F 32.0 °F 86% 30.33 in 9.0 mi NNW 4.6 mph - N/A   Overcast
1:52 PM 37.9 °F - 32.0 °F 79% 30.34 in 10.0 mi Calm Calm - N/A   Overcast
2:52 PM 37.0 °F 33.3 °F 32.0 °F 82% 30.34 in 10.0 mi North 4.6 mph - N/A   Overcast
3:52 PM 37.0 °F 34.5 °F 32.0 °F 82% 30.35 in 10.0 mi ENE 3.5 mph - N/A   Overcast
4:52 PM 37.0 °F - 30.9 °F 79% 30.36 in 10.0 mi Calm Calm - N/A   Overcast
5:28 PM 37.4 °F 32.8 °F 30.2 °F 75% 30.33 in 10.0 mi North 5.8 mph - N/A   Overcast
5:52 PM 37.0 °F 33.3 °F 30.9 °F 79% 30.37 in 10.0 mi NE 4.6 mph - N/A   Overcast
6:27 PM 37.4 °F 32.1 °F 30.2 °F 75% 30.34 in 10.0 mi NNE 6.9 mph - N/A   Overcast
6:52 PM 36.0 °F 32.1 °F 30.9 °F 82% 30.38 in 10.0 mi North 4.6 mph - N/A   Overcast
7:52 PM 36.0 °F 31.1 °F 30.9 °F 82% 30.39 in 10.0 mi North 5.8 mph - N/A   Overcast
8:52 PM 36.0 °F 29.0 °F 30.9 °F 82% 30.39 in 10.0 mi NE 9.2 mph - N/A   Overcast
9:52 PM 35.1 °F 28.6 °F 30.0 °F 82% 30.40 in 10.0 mi ENE 8.1 mph - N/A   Overcast
10:52 PM 35.1 °F 29.3 °F 30.0 °F 82% 30.40 in 10.0 mi NE 6.9 mph - N/A   Overcast
11:52 PM 35.1 °F - 30.9 °F 85% 30.40 in 10.0 mi Calm Calm - N/A   Overcast